{"data":{"norad_id":51858,"epoch":"2026-09-19T12:30:29.074176Z","epoch_age_seconds":136837,"freshness":"FRESH","line1":"1 51858U 22022G   26262.52116984 -.00001494  00000+0 -33099-4 0  9996","line2":"2 51858  53.1587 214.2612 0001653  85.0024 275.1167 15.34392048252489","mean_motion":15.34392048,"eccentricity":0.0001653,"inclination_deg":53.1587,"raan_deg":214.2612,"arg_perigee_deg":85.0024,"mean_anomaly_deg":275.1167,"bstar":-3.3099e-5,"rev_number":25248,"period_min":93.848244448149,"perigee_km":461.59608053039,"apogee_km":463.85767012758,"semimajor_km":6840.863875329,"source":"CELESTRAK","updated_at":"2026-09-20T09:00:39.945523Z"}}